When you browse on this site, cookies collect data to enhance your experience and personalize the content and advertising you see.
Visit our Privacy Policy to learn more. By continuing to use the site, you agree to this use of cookies and data.
  • In Hungary
  • List of Countries
  • For 7 days
  • Water Temperature
  • Weather Map
  • News
  • Weather Widgets
  • user-avatar
    Login

    Hourly Weather Sjerove

    Today, 11 December, Wednesday

    Time Temperature Precipitation Wind Pressure Humidity
    00:00 +6°C° 0 mm 2 mps 758 mmHg 92%
    01:00 +6°C° 0 mm 2 mps 758 mmHg 92%
    02:00 +7°C° 0 mm 2 mps 759 mmHg 92%
    03:00 +6°C° 0 mm 2 mps 759 mmHg 92%
    04:00 +7°C° 0 mm 1 mps 759 mmHg 93%
    05:00 +7°C° 0 mm 1 mps 759 mmHg 93%
    06:00 +6°C° 0 mm 2 mps 759 mmHg 93%
    07:00 +6°C° 0 mm 2 mps 759 mmHg 94%
    08:00 +6°C° 0 mm 2 mps 759 mmHg 95%
    09:00 +7°C° 0 mm 3 mps 759 mmHg 89%
    10:00 +8°C° 0 mm 3 mps 759 mmHg 84%
    11:00 +9°C° 0 mm 3 mps 759 mmHg 79%
    12:00 +9°C° 0 mm 3 mps 759 mmHg 77%
    13:00 +8°C° 0 mm 4 mps 759 mmHg 74%
    14:00 +10°C° 0 mm 4 mps 759 mmHg 72%
    15:00 +8°C° 0 mm 4 mps 759 mmHg 78%
    16:00 +7°C° 0 mm 4 mps 759 mmHg 84%
    17:00 +7°C° 0 mm 3 mps 758 mmHg 91%
    18:00 +5°C° 0 mm 3 mps 759 mmHg 90%
    19:00 +5°C° 0 mm 3 mps 759 mmHg 90%
    20:00 +5°C° 0 mm 3 mps 759 mmHg 90%
    21:00 +5°C° 0 mm 3 mps 759 mmHg 89%
    22:00 +4°C° 0 mm 3 mps 758 mmHg 88%
    23:00 +4°C° 0 mm 3 mps 758 mmHg 87%

    Tomorrow, 12 December, Thursday

    Time Temperature Precipitation Wind Pressure Humidity
    00:00 +4°C° 0 mm 3 mps 758 mmHg 87%
    01:00 +4°C° 0 mm 3 mps 758 mmHg 86%
    02:00 +4°C° 0 mm 3 mps 758 mmHg 86%
    03:00 +4°C° 0 mm 3 mps 757 mmHg 85%
    04:00 +4°C° 0 mm 4 mps 757 mmHg 85%
    05:00 +4°C° 0 mm 4 mps 756 mmHg 85%
    06:00 +4°C° 0 mm 4 mps 756 mmHg 83%
    07:00 +3°C° 0 mm 5 mps 756 mmHg 81%
    08:00 +3°C° 0 mm 5 mps 757 mmHg 79%
    09:00 +5°C° 0 mm 5 mps 756 mmHg 73%
    10:00 +5°C° 0 mm 6 mps 756 mmHg 68%
    11:00 +7°C° 0 mm 6 mps 755 mmHg 62%
    12:00 +7°C° 0 mm 6 mps 755 mmHg 62%
    13:00 +7°C° 0 mm 6 mps 755 mmHg 62%
    14:00 +6°C° 0 mm 7 mps 755 mmHg 62%
    15:00 +7°C° 0 mm 6 mps 754 mmHg 67%
    16:00 +5°C° 0 mm 6 mps 754 mmHg 72%
    17:00 +5°C° 0 mm 5 mps 754 mmHg 77%
    18:00 +3°C° 0 mm 5 mps 753 mmHg 78%
    19:00 +3°C° 0 mm 5 mps 753 mmHg 80%
    20:00 +3°C° 0 mm 5 mps 753 mmHg 81%
    21:00 +3°C° 0 mm 5 mps 753 mmHg 82%
    22:00 +2°C° 0 mm 5 mps 753 mmHg 84%
    23:00 +3°C° 0 mm 4 mps 752 mmHg 85%

    Day after tomorrow, 13 December, Friday

    Time Temperature Precipitation Wind Pressure Humidity
    00:00 +3°C° 0 mm 4 mps 752 mmHg 86%
    01:00 +3°C° 0 mm 4 mps 752 mmHg 86%
    02:00 +3°C° 0 mm 4 mps 752 mmHg 87%
    03:00 +3°C° 0 mm 4 mps 751 mmHg 87%
    04:00 +1°C° 0 mm 4 mps 751 mmHg 87%
    05:00 +1°C° 0 mm 4 mps 751 mmHg 87%
    06:00 +1°C° 0 mm 4 mps 751 mmHg 87%
    07:00 +1°C° 0 mm 4 mps 751 mmHg 86%
    08:00 +1°C° 0 mm 4 mps 751 mmHg 85%
    09:00 +4°C° 0 mm 4 mps 751 mmHg 80%
    10:00 +5°C° 0 mm 4 mps 751 mmHg 74%
    11:00 +6°C° 0 mm 5 mps 750 mmHg 69%
    12:00 +6°C° 0 mm 5 mps 750 mmHg 69%
    13:00 +7°C° 0 mm 5 mps 750 mmHg 70%
    14:00 +7°C° 0 mm 5 mps 750 mmHg 71%
    15:00 +7°C° 0 mm 5 mps 750 mmHg 75%
    16:00 +6°C° 0 mm 5 mps 750 mmHg 78%
    17:00 +6°C° 0 mm 5 mps 750 mmHg 82%
    18:00 +6°C° 0 mm 5 mps 750 mmHg 81%
    19:00 +6°C° 0 mm 5 mps 750 mmHg 80%
    20:00 +6°C° 0 mm 4 mps 750 mmHg 79%
    21:00 +6°C° 0 mm 4 mps 750 mmHg 80%
    22:00 +6°C° 0 mm 4 mps 750 mmHg 80%
    23:00 +6°C° 0 mm 4 mps 750 mmHg 81%

    14 December, Saturday

    Time Temperature Precipitation Wind Pressure Humidity
    00:00 +8°C° 0 mm 3 mps 750 mmHg 85%
    01:00 +8°C° 0 mm 2 mps 750 mmHg 89%
    02:00 +8°C° 0 mm 2 mps 750 mmHg 93%
    03:00 +8°C° 0 mm 2 mps 750 mmHg 92%
    04:00 +9°C° 0 mm 1 mps 750 mmHg 91%
    05:00 +9°C° 0 mm 1 mps 750 mmHg 91%
    06:00 +9°C° 0 mm 1 mps 750 mmHg 90%
    07:00 +9°C° 0 mm 1 mps 751 mmHg 89%
    08:00 +9°C° 0 mm 1 mps 751 mmHg 89%
    09:00 +11°C° 0 mm 1 mps 751 mmHg 83%
    10:00 +12°C° 0 mm 1 mps 752 mmHg 77%
    11:00 +13°C° 0 mm 2 mps 752 mmHg 71%
    12:00 +14°C° 0 mm 1 mps 752 mmHg 69%
    13:00 +14°C° 0 mm 1 mps 752 mmHg 68%
    14:00 +14°C° 0 mm 1 mps 752 mmHg 66%
    15:00 +13°C° 0 mm 2 mps 752 mmHg 69%
    16:00 +13°C° 0 mm 2 mps 752 mmHg 73%
    17:00 +12°C° 0 mm 2 mps 753 mmHg 76%
    18:00 +12°C° 0 mm 2 mps 753 mmHg 77%
    19:00 +12°C° 0 mm 2 mps 753 mmHg 77%
    20:00 +10°C° 0 mm 3 mps 754 mmHg 78%
    21:00 +10°C° 0 mm 2 mps 754 mmHg 77%
    22:00 +10°C° 0 mm 2 mps 754 mmHg 77%
    23:00 +11°C° 0 mm 1 mps 754 mmHg 76%

    15 December, Sunday

    Time Temperature Precipitation Wind Pressure Humidity
    00:00 +10°C° 0 mm 2 mps 755 mmHg 76%
    01:00 +9°C° 0 mm 2 mps 755 mmHg 76%
    02:00 +9°C° 0 mm 2 mps 755 mmHg 76%
    03:00 +9°C° 0 mm 2 mps 755 mmHg 78%
    04:00 +8°C° 0 mm 2 mps 755 mmHg 79%
    05:00 +8°C° 0 mm 2 mps 756 mmHg 81%
    06:00 +8°C° 0 mm 2 mps 756 mmHg 81%
    07:00 +8°C° 0 mm 2 mps 756 mmHg 82%
    08:00 +8°C° 0 mm 2 mps 757 mmHg 82%
    09:00 +10°C° 0 mm 2 mps 757 mmHg 75%
    10:00 +12°C° 0 mm 2 mps 758 mmHg 68%
    11:00 +14°C° 0 mm 2 mps 758 mmHg 61%
    12:00 +13°C° 0 mm 3 mps 758 mmHg 60%
    13:00 +14°C° 0 mm 3 mps 758 mmHg 60%
    14:00 +14°C° 0 mm 3 mps 758 mmHg 59%
    15:00 +13°C° 0 mm 3 mps 759 mmHg 66%
    16:00 +12°C° 0 mm 3 mps 759 mmHg 74%
    17:00 +10°C° 0 mm 2 mps 760 mmHg 81%
    18:00 +10°C° 0 mm 2 mps 760 mmHg 83%
    19:00 +10°C° 0 mm 2 mps 760 mmHg 85%
    20:00 +9°C° 0 mm 2 mps 761 mmHg 87%
    21:00 +9°C° 0 mm 2 mps 761 mmHg 88%
    22:00 +9°C° 0 mm 2 mps 761 mmHg 89%
    23:00 +9°C° 0 mm 1 mps 762 mmHg 90%

    16 December, Monday

    Time Temperature Precipitation Wind Pressure Humidity
    00:00 +9°C° 0 mm 1 mps 762 mmHg 90%
    01:00 +9°C° 0 mm 1 mps 762 mmHg 90%
    02:00 +9°C° 0 mm 1 mps 762 mmHg 90%
    03:00 +9°C° 0 mm 1 mps 762 mmHg 89%
    04:00 +8°C° 0 mm 1 mps 762 mmHg 88%
    05:00 +8°C° 0 mm 1 mps 762 mmHg 87%
    06:00 +9°C° 0 mm 1 mps 763 mmHg 85%
    07:00 +9°C° 0 mm 1 mps 763 mmHg 82%
    08:00 +9°C° 0 mm 1 mps 763 mmHg 80%
    09:00 +10°C° 0 mm 1 mps 764 mmHg 74%
    10:00 +12°C° 0 mm 2 mps 764 mmHg 68%
    11:00 +13°C° 0 mm 2 mps 764 mmHg 62%
    12:00 +13°C° 0 mm 2 mps 764 mmHg 59%
    13:00 +14°C° 0 mm 2 mps 764 mmHg 57%
    14:00 +15°C° 0 mm 2 mps 763 mmHg 54%
    15:00 +13°C° 0 mm 2 mps 764 mmHg 61%
    16:00 +12°C° 0 mm 1 mps 764 mmHg 67%
    17:00 +11°C° 0 mm 1 mps 764 mmHg 73%
    18:00 +10°C° 0 mm 1 mps 764 mmHg 74%
    19:00 +10°C° 0 mm 1 mps 764 mmHg 75%
    20:00 +10°C° 0 mm 1 mps 764 mmHg 75%
    21:00 +10°C° 0 mm 1 mps 765 mmHg 74%
    22:00 +10°C° 0 mm 1 mps 765 mmHg 72%
    23:00 +9°C° 0 mm 1 mps 765 mmHg 71%
    Show more